Regional Weather Roundup
Issued by NWS Sterling, VA

Home | Current Version | Previous Version | Graphics & Text | Print | Product List | Glossary On
Versions: 1 2 3 4 5 6 7 8 9 10 11 12 13 14 15 16 17 18 19 20 21 22 23 24 25 26 27 28 29 30 31 32 33 34 35 36 37 38 39 40 41 42 43 44 45 46 47 48 49 50
000
ASUS41 KLWX 302310
RWRLWX

REGIONAL WEATHER ROUNDUP
NATIONAL WEATHER SERVICE BALTIMORE MD/WASHINGTON DC
600 PM EST FRI JAN 30 2015

Note: "FAIR" indicates few or no clouds below 12,000 feet
with no significant weather and/or obstructions to visibility.
 TC=TEMPERATURE CELSIUS

 * =Non NWS site. Station does not report precipitation (e.g. rain,
    snow, etc.), thunder, or fog.

DCZ001-MDZ009-015-VAZ040>042-051-053>054-310000-
WASHINGTON METRO

CITY           SKY/WX    TMP DP  RH WIND       PRES   REMARKS
WASHINGTON NAT PTCLDY    33  10  38 NW24G35   30.18R WCI  20
DULLES         PTCLDY    27   9  46 NW31G43   30.16R WCI  10
ANDREWS AFB    CLEAR     30   9  42 NW29G37   30.14R WCI  15
FT BELVOIR     CLEAR     30  10  41 NW26G33   30.19R WCI  16
QUANTICO       CLEAR     31   8  38 N20G31    30.22R WCI  19
COLLEGE PARK*  CLEAR     32  10  40 NW17G30   30.17R WCI  21
LEESBURG*      PTCLDY    28  14  54 NW23G36   30.21R WCI  14
MANASSAS*      CLEAR     28  12  50 NW25G39   30.20R WCI  14
GAITHERSBURG*  CLEAR     25   9  50 NW23G35   30.19R WCI  10

$$

MDZ006>007-011-014-310000-
BALTIMORE METRO

CITY           SKY/WX    TMP DP  RH WIND       PRES   REMARKS
BWI AIRPORT    PTCLDY    28  10  46 NW15G33   30.14R WCI  16
MD SCIENCE CTR   N/A     29  10  45 MISG      30.14R
MARTIN STATE   PTCLDY    30  16  55 MISG      30.12
ANNAPOLIS      CLEAR     31  14  49 NW16G31   30.12R WCI  20
FORT MEADE*    CLEAR     28  12  50 NW8G22    30.17R WCI  20

$$

MDZ012-015-019>023-310000-
MARYLAND EASTERN SHORE

CITY           SKY/WX    TMP DP  RH WIND       PRES   REMARKS
OCEAN CITY     CLEAR     34  16  47 NW15G31   30.03R WCI  24
SALISBURY      CLEAR     35  15  44 NW15G24   30.06R WCI  25
BAY BRIDGE AP*   N/A     32  12  43 NW26G38   30.12R WCI  18
CAMBRIDGE*     CLEAR     34  16  47 NW21G31   30.09R WCI  22
EASTON*        CLEAR     32  16  51 NW23G40   30.13  WCI  19

$$

MDZ017>025-310000-
SOUTHERN MARYLAND

CITY           SKY/WX    TMP DP  RH WIND       PRES   REMARKS
PATUXENT RIVER PTCLDY    33  12  41 NW20G31   30.11R WCI  21
ST INIGOES     CLEAR     34  13  41 W22G32    30.11R WCI  22
LEONARDTOWN*   CLEAR     32  12  43 W13G24    30.14R WCI  22

$$

MDZ003>005-310000-
NORTH CENTRAL MARYLAND

CITY           SKY/WX    TMP DP  RH WIND       PRES   REMARKS
FREDERICK*     CLEAR     27   7  43 NW26G37   30.22R WCI  11
HAGERSTOWN APT CLOUDY    23   9  55 NW22      30.19R WCI   8
WESTMINSTER*   PTCLDY    25  10  54 W17G24    30.13R WCI  11

$$

MDZ501>502-310000-
WESTERN MARYLAND

CITY           SKY/WX    TMP DP  RH WIND       PRES   REMARKS
OAKLAND*       CLOUDY    10 N/A N/A NW10G22   30.12R FOG     WCI  -3
CUMBERLAND*    CLOUDY    21  10  63 NW15G24   30.32R WCI   8

$$

VAZ025>031-310000-
SHENANDOAH VALLEY

CITY           SKY/WX    TMP DP  RH WIND       PRES   REMARKS
WINCHESTER*    PTCLDY    27   7  43 NW14      30.23R WCI  15
FRONT ROYAL*   FAIR      27  10  50 NW13      30.20R WCI  16
LURAY*         FAIR      30  12  47 NW8G29    30.21R WCI  23
NEW MARKET*    FAIR      26   9  47 CALM      30.22R
STAUNTON*      PTCLDY    28   8  43 NW12      30.22R WCI  18
WAYNESBORO*    FAIR      26   8  46 NW9G17    30.19R WCI  16

$$

WVZ021-048>050-054>055-310000-
EASTERN WEST VIRGINIA PANHANDLE

CITY           SKY/WX    TMP DP  RH WIND       PRES   REMARKS
MARTINSBURG    MOCLDY    25   7  46 NW20G32   30.23R WCI  11
PETERSBURG*    CLOUDY    26   8  47 NW9       30.27R WCI  16

$$

VAZ036>039-050-310000-
CENTRAL FOOTHILLS

CITY           SKY/WX    TMP DP  RH WIND       PRES   REMARKS
CHARLOTTESVILL CLEAR     30   7  37 NW10G22   30.19R WCI  21
CULPEPER*      CLEAR     32   9  37 NW13G18   30.20R WCI  22
ORANGE*        CLEAR     32  10  40 NW8G18    30.21R WCI  25
GORDONSVILLE*  FAIR      31   8  38 NW13G22   30.18R WCI  21
WARRENTON*     FAIR      30  16  55 NW15G25   30.19R WCI  19

$$

VAZ055>057-310000-
NORTH AND CENTRAL PIEDMONT

CITY           SKY/WX    TMP DP  RH WIND       PRES   REMARKS
FREDERICKSBRG* CLEAR     33  11  40 NW14G26   30.19R WCI  23
STAFFORD*      CLEAR     31   7  37 NW24G37   30.22R WCI  17

$$

NCZ024-NYZ072-PAZ021-071-VAZ022-071-310000-
OTHER REGIONAL OBSERVATIONS

CITY           SKY/WX    TMP DP  RH WIND       PRES   REMARKS
NEW YORK CITY  CLOUDY    32  13  45 NW17G29   29.93R WCI  21
PHILADELPHIA   MOCLDY    33  19  56 NW23G35   30.03R WCI  21
PITTSBURGH     LGT SNOW  15   6  67 NW16      30.35R WCI  -1
ROANOKE        PTCLDY    27   8  44 NW15G24   30.26R WCI  15
RICHMOND       PTCLDY    36   9  32 NW22      30.16R WCI  25
RALEIGH        PTCLDY    40  12  32 NW8G28    30.18R

$$

ANZ530>537-310000-
MARINE OBSERVATIONS

STATION/POSITION TIME  TEMP    WIND        PRES
                       AIR SEA DIR/SP/G
                 (UTC) (F)     (DEG/KT/KT) (MB)
THOMAS PT LIGHT  2300   31 36  300/ 26/ 29 1020.5R
BALT KEY BRIDGE  2300   30     290/ 27/ 31 1019.2R
COVE POINT       2300   33     330/ 16/ 21 1018.7R
LEWISETTA        2300   34 37  330/ 20/ 28 1020.0R
SOLOMONS ISLAND  2300      37                N/A
PINEY POINT      2300          340/ 33/ 37   N/A

$$




USA.gov is the U.S. government's official web portal to all federal, state and local government web resources and services.